Find Starlink 38221

NORAD ID: 100248 Int'l Des: 2026-181 Owner: SPXS Country: US Constellation: starlink operational

現在のビュー

3D地球を読み込み中...

About Starlink 38221

Starlink 38221 (NORAD 100248) is a starlink constellation satellite launched Aug 8, 2026 by SPXS of US. with a mass of 575.00 kg.

次回通過

Passes for default location (London). Set your location on the main map for personalized predictions.

高度履歴

Loading altitude history...

軌道要素

1 A0248U 26181C 26248.11053464 .00165322 00000-0 10853-2 0 9996
2 A0248 97.2849 290.8821 0001373 152.1354 207.9985 15.75246428 5481
Epoch: Sep 5, 2026 • Age: 12 hours

現在のステータス

高度 368.2 km
遠地点 / 近地点 N/A
速度 7.69 km/s
衛星直下点 -62.33°S, 102°E
打ち上げ日 Aug 8, 2026
運用期間 27 days
タイプ internet

技術仕様

分類 Payload
質量 575.00 kg
乾燥質量 530.00 kg
総質量 575.00 kg
長さ 0.30 m
直径 4.10 m
スパン 29.00 m
形状 Box + pan
製造者 SPXS
バスタイプ Starlink V2MO
フェーズステータス In Orbit
所有者/国 SPXS/US

Most Searched